This is the latest recevied weather packets stored in our database for station/object M0UPS-13. If no packets are shown the sender has not sent any weather packets the latest 10 day(s).
| Time | Temp. | Humidity | Pressure | Rain* | Wind** | Luminosity | Snow |
|---|---|---|---|---|---|---|---|
| 1777998603 | 16.11° C | 49% | 1011.5 hPa | 0 mm | - | 50 W/m² | - |
| 1777998302 | 16.11° C | 49% | 1011.5 hPa | 0 mm | - | 61 W/m² | - |
| 1777998002 | 16.11° C | 49% | 1011.7 hPa | 0 mm | - | 57 W/m² | - |
| 1777997702 | 16.11° C | 49% | 1011.7 hPa | 0 mm | - | 52 W/m² | - |
| 1777997402 | 16.11° C | 47% | 1011.7 hPa | 0 mm | - | 56 W/m² | - |
| 1777997102 | 16.67° C | 48% | 1011.5 hPa | 0 mm | - | 68 W/m² | - |
| 1777996802 | 16.67° C | 49% | 1011.6 hPa | 0 mm | - | 85 W/m² | - |
| 1777996502 | 16.67° C | 46% | 1011.6 hPa | 0 mm | - | 101 W/m² | - |
| 1777996202 | 16.67° C | 50% | 1011.7 hPa | 0 mm | - | 96 W/m² | - |
| 1777995903 | 16.67° C | 47% | 1011.7 hPa | 0 mm | - | 88 W/m² | - |
| 1777995602 | 16.67° C | 48% | 1011.5 hPa | 0 mm | - | 101 W/m² | - |
| 1777995302 | 16.67° C | 48% | 1011.7 hPa | 0 mm | - | 124 W/m² | - |
| 1777995002 | 16.11° C | 49% | 1011.8 hPa | 0 mm | - | 135 W/m² | - |
| 1777994703 | 16.11° C | 48% | 1011.7 hPa | 0 mm | - | 117 W/m² | - |
| 1777994402 | 16.11° C | 48% | 1011.8 hPa | 0 mm | - | 83 W/m² | - |
| 1777994102 | 16.11° C | 49% | 1011.7 hPa | 0 mm | - | 67 W/m² | - |
| 1777993802 | 16.11° C | 49% | 1011.7 hPa | 0 mm | - | 74 W/m² | - |
| 1777993502 | 16.11° C | 50% | 1011.8 hPa | 0 mm | - | 86 W/m² | - |
| 1777993202 | 16.67° C | 48% | 1011.8 hPa | 0 mm | - | 83 W/m² | - |
| 1777992902 | 16.67° C | 49% | 1011.9 hPa | 0 mm | - | 64 W/m² | - |
| 1777992602 | 16.67° C | 49% | 1011.9 hPa | 0 mm | - | 63 W/m² | - |
| 1777992302 | 16.67° C | 50% | 1011.8 hPa | 0 mm | - | 72 W/m² | - |
| 1777992002 | 16.67° C | 49% | 1012 hPa | 0 mm | - | 86 W/m² | - |
| 1777991703 | 16.67° C | 49% | 1011.9 hPa | 0 mm | - | 113 W/m² | - |
| 1777991403 | 16.67° C | 49% | 1011.7 hPa | 0 mm | - | 115 W/m² | - |
* Rain latest hour (hover to see other rain measurements)
** Current wind speed in m/s (hover to see current wind gust speed)